Regional Weather Roundup
Issued by NWS Jackson, KY

Home | Current Version | Previous Version | Graphics & Text | Print | Product List | Glossary On
Versions: 1 2 3 4 5 6 7 8 9 10 11 12 13 14 15 16 17 18 19 20 21 22 23 24 25 26 27 28 29 30 31 32 33 34 35 36 37 38 39 40 41 42 43 44 45 46 47 48 49 50
737
ASUS43 KJKL 241010
RWRJKL

EAST KENTUCKY HOURLY WEATHER ROUNDUP
NATIONAL WEATHER SERVICE JACKSON KY
600 AM EDT WED MAY 24 2017

NOTE: "FAIR" INDICATES FEW OR NO CLOUDS BELOW 12,000 FEET WITH
NO SIGNIFICANT WEATHER AND/OR OBSTRUCTIONS TO VISIBILITY.

* THESE REPORTS ARE NOT UNDER NWS QUALITY CONTROL AND MAY NOT
  REPORT WEATHER SUCH AS PRECIPITATION AND FOG.

KYZ079-080-083-085-087-088-110-112-115-119-120-241100
...EASTERN KENTUCKY...

CITY           SKY/WX    TMP DP  RH WIND       PRES   REMARKS
JACKSON        CLOUDY    59  58  96 CALM      29.59S FOG
LONDON         FOG       56  55  97 CALM      29.58F VSB 1/4
SOMERSET*      CLOUDY    55  55 100 CALM      29.58F FOG
MONTICELLO*    CLOUDY    57  56  96 NE8       29.58F
WILLIAMSBURG*  CLOUDY    59  59 100 CALM      29.58F
MIDDLESBORO*   CLOUDY    59  59 100 CALM      29.59F FOG
HARLAN APT*    CLOUDY    59  57  94 CALM      29.60S VSB 3/4
PIKE CO APT*   CLOUDY    59  59 100 CALM      29.60S
BIG SANDY APT* CLOUDY    60  60 100 CALM      29.59F
MOREHEAD APT*  CLOUDY    59  57  94 CALM      29.59F FOG
ASHLAND*       CLOUDY    61  59  94 CALM      29.57R
$$

KYZ035-036-041-042-044-050-067-078-099-241100
...CENTRAL KENTUCKY...

CITY           SKY/WX    TMP DP  RH WIND       PRES   REMARKS
MT STERLING*   FOG       59  59 100 CALM      29.59S VSB 1/2
FLEMING/MASON* FOG       55  55 100 E3        29.59F VSB<1/4
DANVILLE*      CLOUDY    57  55  94 CALM      29.56F
LEXINGTON      CLOUDY    60  57  89 SE6       29.55F
FRANKFORT      CLOUDY    60  56  86 CALM      29.53F
LOUISVILLE     CLOUDY    64  58  80 SE3       29.51F
LEBANON*         N/A     61  59  94 SE3       29.54F
GLASGOW*       CLOUDY   N/A N/A N/A CALM      29.53F
BOWLING GREEN  CLOUDY    63  59  87 CALM      29.54S
$$

KYZ091>093-OHZ055-061-077-WVZ005-015-034-035-042-241100
...SOUTHERN OHIO/WEST VIRGINIA...

CITY           SKY/WX    TMP DP  RH WIND       PRES   REMARKS
COVINGTON      CLOUDY    60  58  92 S5        29.55S
COLUMBUS       CLOUDY    61  59  93 E3        29.59S
DAYTON         CLOUDY    58  57  97 SE8       29.57F
WILMINGTON     PTCLDY    59  59 100 E5        29.57F
HUNTINGTON     CLOUDY    60  58  92 CALM      29.57F FOG
CHARLESTON     CLOUDY    59  56  89 E3        29.59S
PINEVILLE*     MOCLDY    57  56  96 MISG      29.66F
BECKLEY        CLOUDY    55  53  93 SE13G23   29.65R
BLUEFIELD      CLOUDY    53  52  96 SE7       29.67F
LOGAN CO APT*  CLOUDY    59  57  94 CALM      29.60S
$$

VAZ002-007-008-TNZ017-027-036-066-071-241100
...SOUTHWEST VIRGINIA/EAST TENNESSEE...

CITY           SKY/WX    TMP DP  RH WIND       PRES   REMARKS
WISE*          CLOUDY    59  59 100 SE3       29.65S
JONESVILLE*    CLOUDY    61  61 100 CALM      29.62S FOG
ABINGDON*      CLOUDY    60  60 100 SE7       29.65S
BRISTOL        CLOUDY    61  61 100 SE5       29.63S
MORRISTOWN*    CLOUDY    59  59 100 CALM      29.59S FOG
SEVIERVILLE*   MOSUNNY   57  57 100 CALM      29.59F
KNOXVILLE      CLOUDY    61  59  93 SW3       29.57F
LAFOLLETTE*    CLOUDY    63  61  94 CALM      29.60F
OAK RIDGE      CLOUDY    63  60  90 SW3       29.59F
CROSSVILLE     CLOUDY    59  58  96 S5        29.59S FOG
NASHVILLE      LGT RAIN  63  60  90 S9        29.54F
$$

...KEY TO REMARKS...
VSB - VISIBILITY IN MILES
WCI - WIND CHILL INDEX
HX  - HEAT INDEX

$$




USA.gov is the U.S. government's official web portal to all federal, state and local government web resources and services.